Location: Hoyos del Collado
(40.3594°N, 5.2003°W)
Time: 08:43:56
(UTC+00:00)

IRS-P2 Rocket - Visible Passes

Search period start: 24 July 2024 00:00
Search period end: 03 August 2024 00:00
Orbit: 793 x 877 km, 98.9° (Epoch: 24 July)

Date Brightness Start Highest point End Pass type
(mag) Time Alt. Az. Time Alt. Az. Time Alt. Az.
24 Jul 4.6 21:35:56 27° SSE 21:38:53 89° WSW 21:44:09 10° NNW visible
25 Jul 4.7 21:19:21 24° SSE 21:22:29 65° ENE 21:27:40 10° N visible
25 Jul 6.9 23:01:01 12° WSW 23:03:15 15° W 23:06:11 10° WNW visible
26 Jul 5.0 21:02:46 20° SE 21:06:06 46° ENE 21:11:05 10° N visible
26 Jul 6.5 22:44:27 17° SW 22:46:39 21° W 22:50:37 10° NW visible
27 Jul 5.5 20:46:12 15° ESE 20:49:46 33° ENE 20:54:24 10° N visible
27 Jul 6.0 22:27:52 22° SW 22:30:05 30° W 22:34:41 10° NW visible
28 Jul 5.9 20:29:37 11° ESE 20:33:29 24° ENE 20:37:34 10° NNE visible
28 Jul 5.5 22:11:18 28° SSW 22:13:34 43° W 22:18:32 10° NNW visible
29 Jul 6.3 20:13:53 10° ESE 20:17:13 17° ENE 20:20:32 10° NNE visible
29 Jul 4.9 21:54:43 32° S 21:57:05 62° WSW 22:02:16 10° NNW visible
30 Jul 4.5 21:38:09 33° SSE 21:40:37 87° WSW 21:45:53 10° NNW visible
31 Jul 4.6 21:21:34 29° SSE 21:24:13 67° ENE 21:29:24 10° N visible
31 Jul 6.9 23:03:14 12° WSW 23:05:01 14° W 23:07:46 10° WNW visible
01 Aug 5.0 21:04:59 24° SE 21:07:49 47° ENE 21:12:48 10° N visible
01 Aug 6.5 22:46:40 18° WSW 22:48:24 21° W 22:52:16 10° NW visible
02 Aug 5.4 20:48:25 18° ESE 20:51:29 33° ENE 20:56:07 10° N visible
02 Aug 6.0 22:30:06 24° SW 22:31:50 29° W 22:36:21 10° NW visible
